EN

Hourly Weather Pernik

Today, 16 September, Thursday

Time Temperature Precipitation Wind Pressure Humidity
00:00 +15°C° 0 mm 0 mps 693 mmHg 57%
01:00 +14°C° 0 mm 0 mps 693 mmHg 58%
02:00 +15°C° 0 mm 1 mps 693 mmHg 59%
03:00 +15°C° 0 mm 1 mps 693 mmHg 60%
04:00 +14°C° 0 mm 1 mps 693 mmHg 61%
05:00 +14°C° 0 mm 1 mps 693 mmHg 62%
06:00 +15°C° 0 mm 1 mps 693 mmHg 57%
07:00 +18°C° 0 mm 1 mps 693 mmHg 52%
08:00 +20°C° 0 mm 1 mps 694 mmHg 47%
09:00 +22°C° 0 mm 1 mps 694 mmHg 40%
10:00 +25°C° 0 mm 1 mps 694 mmHg 34%
11:00 +27°C° 0 mm 1 mps 695 mmHg 27%
12:00 +28°C° 0 mm 1 mps 695 mmHg 25%
13:00 +29°C° 0 mm 2 mps 694 mmHg 23%
14:00 +30°C° 0 mm 2 mps 694 mmHg 22%
15:00 +30°C° 0 mm 2 mps 694 mmHg 22%
16:00 +30°C° 0 mm 2 mps 693 mmHg 23%
17:00 +29°C° 0 mm 2 mps 693 mmHg 23%
18:00 +27°C° 0 mm 2 mps 693 mmHg 28%
19:00 +25°C° 0 mm 1 mps 693 mmHg 32%
20:00 +23°C° 0 mm 1 mps 693 mmHg 36%
21:00 +22°C° 0 mm 1 mps 693 mmHg 37%
22:00 +22°C° 0 mm 1 mps 693 mmHg 38%
23:00 +22°C° 0 mm 1 mps 693 mmHg 39%

Tomorrow, 17 September, Friday

Time Temperature Precipitation Wind Pressure Humidity
00:00 +21°C° 0 mm 1 mps 693 mmHg 42%
01:00 +21°C° 0 mm 1 mps 693 mmHg 45%
02:00 +19°C° 0 mm 0 mps 693 mmHg 47%
03:00 +20°C° 0 mm 1 mps 692 mmHg 48%
04:00 +20°C° 0 mm 1 mps 692 mmHg 49%
05:00 +20°C° 0 mm 1 mps 692 mmHg 50%
06:00 +20°C° 0 mm 1 mps 692 mmHg 48%
07:00 +21°C° 0 mm 1 mps 692 mmHg 46%
08:00 +22°C° 0 mm 1 mps 692 mmHg 44%
09:00 +23°C° 0 mm 1 mps 692 mmHg 41%
10:00 +24°C° 0 mm 1 mps 692 mmHg 39%
11:00 +25°C° 0 mm 2 mps 692 mmHg 36%
12:00 +27°C° 0 mm 2 mps 692 mmHg 33%
13:00 +29°C° 0 mm 3 mps 691 mmHg 29%
14:00 +30°C° 0 mm 4 mps 691 mmHg 26%
15:00 +29°C° 0 mm 3 mps 691 mmHg 30%
16:00 +27°C° 0 mm 2 mps 690 mmHg 35%
17:00 +26°C° 0 mm 2 mps 690 mmHg 39%
18:00 +25°C° 0 mm 2 mps 689 mmHg 43%
19:00 +23°C° 0 mm 2 mps 689 mmHg 46%
20:00 +21°C° 0 mm 2 mps 689 mmHg 49%
21:00 +21°C° 0,1 mm 2 mps 689 mmHg 52%
22:00 +21°C° 0,1 mm 1 mps 689 mmHg 56%
23:00 +20°C° 0,1 mm 1 mps 689 mmHg 59%

Day after tomorrow, 18 September, Saturday

Time Temperature Precipitation Wind Pressure Humidity
00:00 +20°C° 0,2 mm 1 mps 689 mmHg 64%
01:00 +19°C° 0,2 mm 1 mps 689 mmHg 68%
02:00 +18°C° 0,2 mm 1 mps 689 mmHg 73%
03:00 +18°C° 0 mm 1 mps 689 mmHg 75%
04:00 +16°C° 0 mm 1 mps 689 mmHg 76%
05:00 +16°C° 0 mm 1 mps 688 mmHg 78%
06:00 +18°C° 0,2 mm 1 mps 689 mmHg 76%
07:00 +19°C° 0,2 mm 1 mps 689 mmHg 74%
08:00 +19°C° 0,2 mm 1 mps 689 mmHg 72%
09:00 +20°C° 0,1 mm 2 mps 690 mmHg 64%
10:00 +23°C° 0,1 mm 2 mps 690 mmHg 55%
11:00 +25°C° 0,1 mm 3 mps 690 mmHg 47%
12:00 +25°C° 0,1 mm 3 mps 690 mmHg 45%
13:00 +26°C° 0,1 mm 4 mps 690 mmHg 43%
14:00 +26°C° 0,1 mm 4 mps 690 mmHg 41%
15:00 +23°C° 0,2 mm 4 mps 690 mmHg 49%
16:00 +21°C° 0,2 mm 3 mps 690 mmHg 57%
17:00 +19°C° 0,2 mm 3 mps 690 mmHg 65%
18:00 +18°C° 0,1 mm 2 mps 690 mmHg 70%
19:00 +18°C° 0,1 mm 1 mps 690 mmHg 75%
20:00 +15°C° 0,1 mm 1 mps 690 mmHg 79%
21:00 +15°C° 0 mm 1 mps 690 mmHg 81%
22:00 +14°C° 0 mm 0 mps 690 mmHg 82%
23:00 +13°C° 0 mm 0 mps 690 mmHg 84%

19 September, Sunday

Time Temperature Precipitation Wind Pressure Humidity
00:00 +13°C° 0 mm 0 mps 690 mmHg 85%
01:00 +13°C° 0 mm 0 mps 690 mmHg 85%
02:00 +12°C° 0 mm 0 mps 690 mmHg 86%
03:00 +12°C° 0 mm 0 mps 690 mmHg 86%
04:00 +12°C° 0 mm 0 mps 690 mmHg 87%
05:00 +12°C° 0 mm 0 mps 690 mmHg 87%
06:00 +13°C° 0 mm 0 mps 690 mmHg 82%
07:00 +16°C° 0 mm 1 mps 690 mmHg 77%
08:00 +18°C° 0 mm 1 mps 690 mmHg 71%
09:00 +20°C° 0 mm 1 mps 691 mmHg 62%
10:00 +23°C° 0 mm 2 mps 691 mmHg 53%
11:00 +25°C° 0 mm 2 mps 691 mmHg 44%
12:00 +26°C° 0 mm 3 mps 691 mmHg 40%
13:00 +27°C° 0 mm 4 mps 691 mmHg 36%
14:00 +28°C° 0 mm 4 mps 691 mmHg 32%
15:00 +28°C° 0 mm 4 mps 690 mmHg 33%
16:00 +27°C° 0 mm 4 mps 690 mmHg 34%
17:00 +27°C° 0 mm 4 mps 690 mmHg 35%
18:00 +24°C° 0 mm 3 mps 690 mmHg 45%
19:00 +21°C° 0 mm 2 mps 690 mmHg 56%
20:00 +19°C° 0 mm 1 mps 690 mmHg 66%
21:00 +18°C° 0 mm 1 mps 690 mmHg 68%
22:00 +18°C° 0 mm 1 mps 690 mmHg 71%
23:00 +15°C° 0 mm 0 mps 690 mmHg 73%

20 September, Monday

Time Temperature Precipitation Wind Pressure Humidity
00:00 +16°C° 0 mm 1 mps 690 mmHg 74%
01:00 +16°C° 0 mm 1 mps 690 mmHg 74%
02:00 +15°C° 0 mm 1 mps 690 mmHg 75%
03:00 +15°C° 0 mm 1 mps 690 mmHg 75%
04:00 +15°C° 0 mm 1 mps 689 mmHg 75%
05:00 +14°C° 0 mm 1 mps 689 mmHg 75%
06:00 +16°C° 0 mm 1 mps 690 mmHg 69%
07:00 +18°C° 0 mm 1 mps 690 mmHg 63%
08:00 +20°C° 0 mm 1 mps 690 mmHg 57%
09:00 +21°C° 0 mm 2 mps 690 mmHg 50%
10:00 +24°C° 0 mm 2 mps 690 mmHg 42%
11:00 +27°C° 0 mm 3 mps 690 mmHg 35%
12:00 +26°C° 0,1 mm 4 mps 690 mmHg 39%
13:00 +25°C° 0,1 mm 5 mps 690 mmHg 43%
14:00 +23°C° 0,1 mm 6 mps 690 mmHg 46%
15:00 +21°C° 0,1 mm 6 mps 690 mmHg 51%
16:00 +20°C° 0,1 mm 5 mps 690 mmHg 55%
17:00 +18°C° 0,1 mm 4 mps 691 mmHg 60%
18:00 +15°C° 0 mm 4 mps 691 mmHg 66%
19:00 +14°C° 0 mm 3 mps 691 mmHg 73%
20:00 +12°C° 0 mm 3 mps 692 mmHg 79%
21:00 +11°C° 0 mm 3 mps 692 mmHg 80%
22:00 +11°C° 0 mm 3 mps 692 mmHg 81%
23:00 +10°C° 0 mm 3 mps 692 mmHg 82%

21 September, Tuesday

Time Temperature Precipitation Wind Pressure Humidity
00:00 +9°C° 0 mm 2 mps 693 mmHg 83%
01:00 +9°C° 0 mm 2 mps 693 mmHg 85%
02:00 +8°C° 0 mm 2 mps 693 mmHg 86%
03:00 +7°C° 0 mm 2 mps 693 mmHg 87%
04:00 +7°C° 0 mm 2 mps 693 mmHg 88%
05:00 +6°C° 0 mm 2 mps 693 mmHg 89%
06:00 +7°C° 0 mm 2 mps 693 mmHg 82%
07:00 +8°C° 0 mm 2 mps 693 mmHg 75%
08:00 +9°C° 0 mm 2 mps 694 mmHg 67%
09:00 +12°C° 0 mm 2 mps 694 mmHg 56%
10:00 +14°C° 0 mm 2 mps 694 mmHg 45%
11:00 +16°C° 0 mm 3 mps 694 mmHg 34%
12:00 +17°C° 0 mm 3 mps 694 mmHg 32%
13:00 +18°C° 0 mm 4 mps 693 mmHg 29%
14:00 +19°C° 0 mm 4 mps 693 mmHg 27%
15:00 +18°C° 0 mm 4 mps 693 mmHg 28%
16:00 +18°C° 0 mm 4 mps 693 mmHg 28%
17:00 +17°C° 0 mm 4 mps 693 mmHg 29%
18:00 +14°C° 0 mm 4 mps 693 mmHg 37%
19:00 +11°C° 0 mm 3 mps 693 mmHg 44%
20:00 +9°C° 0 mm 2 mps 693 mmHg 52%
21:00 +8°C° 0 mm 2 mps 693 mmHg 55%
22:00 +8°C° 0 mm 1 mps 693 mmHg 58%
23:00 +7°C° 0 mm 1 mps 693 mmHg 62%
Show more

We Need Your Consent

Meteoprog and our Service Providers may store and access personal data such as cookies, device identifiers or other similar technologies on your device and process such data to personalise content and ads, as well as provide social media features and to analyse the traffic.

  • Store and/or access information on your device

    Cookies, device identifiers or other information can be stored or accessed on your device for the purposes indicated above.

  • Personalised ads and content, ad and content measurement, audience insights, and products development

    Ads and content can be personalised based on a profile. More data can be added to better personalise ads and content. Ad and content performance can be measured. Insights about the audience who saw the ads and content can be derived. Such data can be used to develop or improve user’s experience, systems and software.

By clicking ‘I Agree’ you will allow the use of indicated cookies, device identifiers, web beacons or other similar technologies. Your settings can be changed in the browser on your device.

For certain purposes, legitimate interests may be relied on, rather than consent. You can read more about this in our Privacy and Cookie Policy.